CLARKSAT-1

导读

CLARKSAT-1(克拉克卫星1号)是日本克拉克纪念国际高等学校研制的1U纳卫星,于1998年11月20日发射,进入近地轨道(轨道高度182km×169km,倾角51.6°)。它是一颗科学教育卫星,搭载业余无线电载荷与相机,开展对地遥感拍摄和数字信号传输任务,由高中生参与研发操作,旨在培养青少年航天兴趣,供全球无线电爱好者参与接收实验数据。

Basic Information
目录编号:
58613
目录名称:
CLARKSAT-1
国际标识:
1998-067WE
轨道中心:
EARTH
卫星名称:
CLARKSAT-1
卫星全名:
--
卫星状态:
已陨落 最后检测时间 2024-04-23
发射日期:
1998-11-20 UTC
国别 :
日本 (JP)
星等 :
--
Orbit Information
数据来源 国际轨道数据
星历时间: 2024-04-16T10:40:00+0800
轨道信息已过期819天
半长轴: 6553.927km
偏心率: 0.0010442
轨道倾角: 51.610°
近地点辐角 303.434°
升交点赤经 247.688°
平近点角 56.569°
近地点: 168.948km
远地点: 182.636km
周期: 88.006分钟
每日圈数: 16.36253
Detailed Information
使用方式:
暂无